Tracking 28126 objects as of 2-Oct-2023
HD Live streaming from Space Station
objects crossing your sky now

STARLINK-4655

Track STARLINK-4655 now!
10-day predictions
STARLINK-4655 is classified as:


NORAD ID: 53613
Int'l Code: 2022-104AB
Perigee: 545.9 km
Apogee: 547.9 km
Inclination: 53.2 °
Period: 95.4 minutes
Semi major axis: 6917 km
RCS: Unknown
Launch date: August 28, 2022
Source: United States (US)
Launch site: AIR FORCE EASTERN TEST RANGE (AFETR)
Your satellite tracking list
Your tracking list is empty




NASA's NSSDC Master Catalog

Two Line Element Set (TLE):
1 53613U 22104AB  23275.02452686 -.00000693  00000-0 -25427-4 0  9993
2 53613  53.2157 268.1343 0001505  88.0568 272.0597 15.08832794 60753
Source of the keplerian elements: AFSPC